Wind_Speed
13 10 12 13 9 8 8 8 9 9 4 6 10 11 11 5 11 14 16 15 13 11 9 12 15 16 15 11 13 14 14 13 16 14 14 12 11 8 5 4 7 10 12 12
8 14 9 2 6 8 10 12 12 8 3 7 8 12 4 2 6 8 11 11 10 9 8 5 7 10 12 10 9 10 12 14 13 13 10 9 9 7 5 3 6 6 9 12
16 2 4 11 10 11 12 13 12 12 9 7 6 12 10 5 4 6 6 4 5 4 6 6 5 4 4 5 7 10 13 14 13 14 14 12 8 5 4 1 3 4 7 10
14 10 6 11 12 12 12 13 12 11 10 11 8 8 11 9 5 3 4 5 5 7 1 3 5 5 5 6 8 9 10 12 13 12 10 11 10 7 1 3 4 6 8 9
12 11 16 13 13 10 1 2 11 14 14 9 12 8 8 9 9 5 6 8 9 10 10 9 9 8 9 9 10 11 11 11 9 7 4 2 2 4 3 3 4 7 7 8
16 4 8 17 9 7 3 5 8 9 10 11 12 5 8 6 2 3 8 10 9 9 9 10 10 11 12 13 14 13 11 10 8 7 8 8 7 6 2 7 8 9 7 8
15 14 10 5 12 8 10 10 8 9 10 10 6 6 5 7 4 2 4 6 7 7 8 9 10 12 13 12 11 10 9 9 8 9 9 8 8 6 6 8 9 10 9 9
14 14 20 13 17 12 15 13 7 9 7 7 7 6 6 5 5 4 4 4 5 5 7 9 11 11 11 10 9 9 9 8 7 7 7 8 7 5 7 8 9 9 11 12
13 13 5 14 16 17 8 11 6 8 4 8 7 7 5 8 7 7 6 5 6 7 8 9 10 10 10 9 8 8 8 8 7 7 7 7 7 8 8 9 10 11 12 14
8 8 10 10 9 6 12 10 7 8 10 12 9 5 5 13 12 10 9 9 9 9 10 10 11 10 9 8 8 8 7 7 7 6 5 6 8 9 10 10 12 13 15 16
11 7 10 11 14 15 9 12 8 6 5 8 10 5 5 8 11 12 12 12 12 11 11 11 12 11 9 8 7 6 6 6 5 5 4 6 7 8 10 11 14 15 16 16
18 9 8 15 7 4 6 13 16 11 12 7 9 9 2 8 10 9 10 11 11 11 12 11 12 11 9 8 7 7 5 4 4 5 5 5 6 8 9 12 15 16 14 13
16 10 12 11 8 7 10 11 9 6 5 8 9 5 7 7 8 8 9 10 10 12 13 12 12 11 9 8 7 6 5 4 4 3 3 5 5 6 8 11 14 14 13 13
13 13 17 13 13 15 15 12 12 13 9 11 11 6 10 9 9 9 8 10 11 11 12 12 11 11 9 8 7 6 5 3 2 2 2 3 5 6 7 10 12 13 14 12
13 13 17 18 12 10 13 16 15 14 12 8 4 8 4 7 8 10 9 10 12 12 13 12 11 12 10 9 8 6 4 1 1 3 4 4 6 7 6 8 11 12 14 14
8 8 12 12 10 12 12 13 14 13 9 7 4 6 3 2 3 6 9 12 13 13 13 12 12 12 11 9 7 5 3 1 2 3 4 5 7 6 6 7 9 11 12 14
12 9 11 11 9 10 12 13 15 12 11 9 9 2 4 3 3 2 6 10 11 11 12 12 12 12 10 9 7 6 2 1 2 3 4 4 6 7 8 7 9 10 11 12
10 13 8 7 10 12 5 6 6 8 6 7 1 3 1 1 3 3 3 6 7 9 11 11 13 12 11 9 8 4 2 3 3 3 4 5 7 8 9 8 9 10 10 11
5 10 4 6 13 6 6 6 8 9 8 7 5 3 3 5 6 7 5 3 6 9 11 12 12 12 12 10 7 5 4 3 3 4 5 6 8 10 9 10 10 10 10 10
5 6 9 8 13 13 9 12 4 2 9 7 4 5 6 6 9 9 7 8 10 12 13 15 14 13 12 8 6 4 2 2 3 4 6 7 9 10 10 11 11 11 11 11
10 10 14 9 10 5 10 9 7 9 2 7 5 4 4 2 6 9 9 10 12 13 16 16 15 13 11 7 4 1 2 3 5 5 6 8 9 9 9 10 11 11 11 11
13 11 9 10 11 10 12 8 10 4 6 7 5 4 6 9 10 10 10 11 13 16 17 15 14 12 9 7 3 1 2 4 5 4 6 8 9 10 11 11 12 12 11 12
10 6 5 6 7 8 8 2 5 1 4 5 6 6 7 9 9 10 11 12 15 16 15 14 13 12 8 6 4 1 2 4 4 5 7 8 10 10 11 11 12 13 12 12
4 3 4 6 6 8 6 4 2 2 3 5 7 8 8 9 11 11 12 12 14 15 14 12 13 10 7 5 3 1 3 4 6 7 8 9 10 10 10 12 11 13 15 15
3 8 7 4 6 4 5 3 4 6 8 9 8 8 9 12 12 13 12 13 14 14 14 13 11 9 7 5 2 1 2 4 7 10 9 8 11 10 11 11 11 11 11 11
5 6 7 5 3 4 5 6 7 9 10 9 11 10 9 11 13 14 12 14 14 14 15 13 9 7 5 3 1 0 2 4 6 8 7 9 11 11 11 12 13 8 6 9
Wind_Direction
201 218 217 214 224 313 287 254 232 191 128 248 237 237 242 205 226 233 232 229 228 246 233 215 211 224 217 214 207 204 197 183 178 178 177 175 165 152 125 68 6 351 344 341
182 226 227 220 213 222 227 231 224 215 179 234 224 238 182 272 268 288 284 279 254 225 208 186 217 212 205 206 196 189 179 173 167 164 175 175 169 147 143 42 338 352 352 345
227 98 234 207 198 218 225 230 229 237 175 229 245 238 175 124 100 87 67 40 32 337 288 203 186 179 173 176 173 171 166 162 155 158 153 148 150 158 192 312 359 354 13 358
237 195 184 203 223 215 226 212 234 223 222 236 189 267 163 139 133 111 82 65 35 12 178 115 117 99 89 99 119 130 141 143 143 151 163 180 206 230 342 33 17 16 13 1
212 210 213 220 222 201 97 210 222 217 225 258 196 247 127 156 160 119 78 63 51 49 46 67 74 88 100 113 117 120 121 118 119 128 127 104 50 9 43 41 42 16 5 349
242 180 219 215 165 210 128 196 188 211 218 225 228 244 237 148 111 121 84 71 61 64 79 87 96 106 108 110 109 107 101 82 67 59 54 59 60 50 13 24 16 356 356 331
216 211 195 208 204 190 208 201 194 208 206 239 135 222 54 113 133 44 50 55 49 57 86 103 112 112 114 110 106 98 89 78 70 66 65 65 64 53 30 25 8 350 334 326
206 206 209 193 228 207 205 220 251 240 209 222 146 233 132 130 132 120 105 100 98 91 104 111 114 117 117 107 100 96 90 83 72 67 63 57 44 24 28 12 10 332 319 320
203 229 170 211 207 227 180 221 287 258 265 280 256 127 171 167 172 176 171 158 130 125 124 128 128 129 122 108 96 92 87 80 72 69 58 47 35 22 6 9 345 328 320 322
201 213 198 173 195 201 255 179 195 214 243 241 231 240 274 185 192 185 182 178 155 150 151 146 143 131 122 111 100 86 79 78 74 62 46 30 24 9 357 354 342 328 323 313
191 251 159 172 206 191 185 213 230 289 309 261 267 257 93 175 180 177 176 168 164 163 158 156 145 140 130 123 110 100 94 87 77 56 38 36 16 6 360 353 339 330 322 312
209 216 212 200 104 329 274 238 213 233 218 236 271 278 137 148 162 172 167 158 154 160 155 153 150 150 143 129 118 112 102 85 61 44 12 24 13 6 358 351 338 336 323 328
185 213 208 221 198 198 227 203 234 246 272 235 237 237 145 154 169 183 182 158 158 162 157 156 156 159 150 140 138 130 118 98 75 44 360 0 17 352 356 350 347 344 345 336
182 216 219 220 218 206 203 211 214 211 227 235 228 246 162 191 201 198 200 168 169 175 166 163 163 166 163 155 153 144 128 97 54 320 328 339 342 334 348 345 349 353 354 346
189 211 217 229 254 214 212 199 197 210 238 260 275 217 147 187 207 213 194 180 175 178 175 173 172 172 169 166 155 149 135 128 341 282 303 325 323 319 332 338 343 353 353 347
192 205 207 210 230 224 220 211 204 215 206 211 207 235 28 41 285 249 198 185 190 185 181 180 175 174 176 167 161 158 179 244 264 264 275 307 311 315 327 324 334 344 350 358
182 167 189 198 206 196 213 196 196 186 199 228 222 315 111 227 264 272 215 195 196 184 180 181 174 177 170 164 164 171 194 222 260 280 294 317 324 324 318 312 323 337 344 353
182 196 197 170 169 212 100 128 206 223 223 212 205 234 344 355 77 51 10 177 176 170 174 172 168 166 159 152 152 164 194 228 263 286 307 330 323 318 319 313 319 325 333 340
203 194 170 178 209 125 148 174 177 190 198 208 245 185 173 132 152 99 61 73 136 153 156 155 156 156 148 148 154 167 204 255 290 308 318 333 320 318 320 324 319 313 315 327
158 245 225 194 242 220 246 140 157 150 250 160 220 200 166 178 243 87 98 108 118 130 136 143 142 138 138 143 150 196 230 278 317 324 318 328 325 323 323 325 318 310 305 313
189 208 217 199 231 199 106 140 167 230 69 108 161 153 159 186 51 107 109 106 117 127 133 134 138 135 132 141 142 172 281 332 326 314 317 324 327 327 322 323 320 310 310 316
202 200 208 229 212 221 138 140 229 67 108 119 149 138 133 113 120 119 119 121 127 129 136 138 129 135 138 134 136 131 13 345 323 311 320 330 328 323 324 320 316 320 319 320
218 229 206 228 222 101 171 32 99 56 138 157 148 135 130 137 135 135 133 136 136 140 132 138 141 136 134 138 149 166 20 354 343 326 330 332 328 332 325 318 320 321 328 322
148 170 181 186 132 114 149 154 129 187 153 129 122 133 139 141 144 140 142 140 141 143 145 142 144 143 149 172 171 219 358 353 334 326 325 336 321 328 330 321 330 337 342 339
75 170 156 143 140 163 169 183 139 130 126 122 118 132 135 144 147 147 144 146 145 144 147 149 147 160 155 161 165 195 352 344 340 333 328 337 328 330 322 329 330 332 354 347
192 143 212 238 92 267 80 141 156 149 141 132 129 126 132 141 143 146 146 149 149 152 150 157 160 162 156 162 161 285 326 328 333 324 340 333 324 333 333 334 336 333 356 3
Height
787 795 797 784 781 782 786 786 787 779 778 787 782 781 770 766 769 767 764 765 771 776 782 788 797 801 805 809 814 816 822 825 827 829 831 834 834 838 839 838 838 838 839 837
796 798 777 781 787 792 792 795 791 778 782 785 778 783 769 776 773 771 768 765 766 774 780 790 798 802 806 811 814 818 822 824 827 828 831 833 836 834 834 833 832 832 834 837
789 780 776 789 793 797 792 793 790 791 782 779 784 787 781 781 777 778 782 783 784 787 788 791 802 807 810 813 816 819 821 823 826 827 829 832 832 832 830 829 831 831 828 832
781 771 786 789 790 787 794 780 782 786 793 798 778 800 781 780 787 787 788 789 794 794 790 792 803 810 814 818 820 823 825 825 827 829 830 829 829 828 830 829 831 831 828 829
781 782 788 790 785 779 783 780 783 784 787 784 788 800 779 777 785 789 791 795 800 801 799 802 808 815 819 822 824 826 828 830 831 832 832 832 831 833 833 832 829 824 827 830
769 767 772 773 773 778 778 785 783 783 780 809 783 796 775 774 785 784 787 796 803 804 808 811 815 818 822 825 827 830 832 833 834 834 833 833 834 834 836 832 829 830 826 830
778 775 768 767 780 776 780 787 801 810 803 803 784 796 782 782 784 787 791 797 803 805 807 812 815 819 823 827 830 833 835 836 836 836 836 836 835 836 836 831 830 830 829 829
785 793 769 764 772 774 777 776 787 818 802 790 787 799 781 780 787 791 797 800 805 807 808 813 817 821 825 829 832 834 836 837 838 838 838 837 836 837 834 834 830 832 832 829
776 776 755 757 759 762 776 788 766 786 784 794 775 779 784 783 789 792 793 798 804 810 812 816 821 824 828 832 834 836 837 838 839 839 839 839 838 838 836 832 833 832 830 827
762 779 760 761 759 764 766 756 792 785 812 817 781 785 780 783 782 784 789 793 801 809 813 818 822 827 830 834 836 838 839 840 841 841 841 840 839 838 836 833 833 831 828 826
750 765 771 764 768 765 774 774 774 776 781 799 803 781 756 764 770 776 778 784 795 804 811 817 823 828 831 834 836 838 839 840 841 841 841 839 839 838 836 834 832 830 827 825
747 764 771 764 753 753 750 758 761 784 791 784 787 784 763 760 765 769 773 781 791 799 807 816 823 828 831 834 836 839 840 841 842 841 842 839 838 838 836 834 833 829 827 822
746 765 779 773 767 763 767 761 763 766 771 781 795 787 762 767 771 772 773 782 793 800 806 813 821 826 830 833 836 838 840 841 841 841 842 840 837 837 836 834 833 829 825 821
742 751 764 771 758 747 768 764 761 767 777 773 778 768 772 773 775 774 777 782 792 801 808 811 818 825 829 832 835 838 840 841 841 841 840 838 838 836 834 834 832 828 824 821
744 759 751 746 743 746 752 757 761 768 762 777 762 770 760 764 766 768 771 781 792 799 806 812 815 822 828 832 835 837 839 839 840 840 839 838 837 836 833 832 831 827 824 821
745 752 750 755 751 750 756 750 755 757 761 764 768 771 757 765 768 769 768 780 790 796 802 810 814 820 826 830 834 838 839 839 839 839 838 837 836 834 832 831 829 827 824 820
745 750 755 761 753 753 766 755 756 758 755 758 773 761 762 767 770 770 772 778 786 793 800 808 813 820 825 831 835 838 839 839 839 838 837 834 835 833 830 829 827 825 823 819
742 746 742 749 764 785 751 744 748 756 755 755 761 762 764 770 775 777 776 777 784 792 800 807 813 820 827 832 836 838 839 839 838 837 835 833 833 831 829 827 825 824 821 818
732 738 751 763 765 756 764 759 758 761 763 755 760 761 766 771 774 783 785 784 787 795 802 809 815 822 828 833 836 837 838 838 837 836 834 832 832 830 827 824 823 821 819 816
738 740 745 752 760 771 745 747 747 751 770 745 756 760 765 767 769 786 789 791 796 800 806 813 819 825 830 834 835 837 837 836 835 834 834 832 830 828 825 823 821 818 816 812
745 743 750 752 757 746 742 748 750 777 770 755 757 759 764 768 780 790 794 797 801 806 812 818 823 827 831 834 836 837 836 835 835 834 833 830 829 827 824 822 819 816 813 809
741 747 748 743 756 765 741 752 764 757 754 754 760 762 768 779 787 792 797 802 807 812 817 821 825 830 832 835 836 836 836 836 835 833 831 829 827 825 822 820 817 814 811 807
744 732 738 747 746 745 743 748 753 752 752 756 759 765 769 778 786 792 798 804 809 813 818 824 827 831 833 834 835 835 835 835 834 832 830 828 826 823 820 818 815 810 807 803
742 740 738 749 749 747 750 753 754 755 754 758 761 769 774 779 787 793 799 804 810 815 820 824 828 830 833 834 834 835 835 834 833 831 829 826 824 822 819 816 812 809 805 802
732 740 743 745 748 751 751 752 755 759 762 765 768 772 775 781 787 792 798 804 809 815 820 824 828 830 830 832 833 834 834 833 832 830 828 824 822 820 817 814 811 809 807 805
737 737 743 744 740 747 748 755 759 762 764 768 771 776 780 783 788 794 800 805 810 814 819 823 825 828 830 831 833 834 834 833 832 829 826 824 822 818 814 811 808 805 804 803